Theta_e
335 331 324 319 304 308 304 312 320 316 319 328 329 329 327 328 321 313 334 339 344 350 357 362 363 362 361 361 362 362 363 363 363 362 361 361 360 358 357 358 359 357 354 354 354 355 355 355 354
318 318 318 309 299 300 304 314 315 319 324 328 329 326 326 324 332 331 331 340 345 351 352 359 364 362 362 362 361 362 363 363 362 361 361 359 359 357 356 356 356 355 353 354 354 354 353 352 351
323 317 305 301 297 298 304 314 317 322 330 328 326 332 326 323 334 333 336 340 344 345 350 358 363 363 363 362 362 362 362 362 361 360 358 357 357 356 355 354 354 354 354 353 353 353 353 351 350
315 309 304 299 294 302 314 315 321 323 326 328 327 322 327 331 332 338 338 338 339 341 349 360 363 363 363 362 362 362 362 361 360 358 357 357 355 354 353 353 354 354 353 352 352 352 351 350 351
313 302 295 294 294 311 318 322 322 321 324 323 324 322 323 331 342 340 336 337 338 343 350 356 361 362 362 361 360 361 361 360 359 358 356 355 355 353 352 352 354 353 352 350 350 351 349 348 348
305 299 292 289 297 314 318 321 323 317 324 325 323 325 323 336 340 342 339 338 341 343 349 352 359 360 360 360 360 359 358 357 358 357 356 355 354 353 353 352 353 354 353 349 349 349 346 345 345
303 297 292 293 295 310 316 323 321 321 322 324 328 323 324 328 340 343 343 346 343 344 346 348 351 355 359 358 357 357 356 355 355 354 354 354 354 354 353 353 354 355 353 348 346 345 344 346 347
302 297 292 293 294 302 319 322 324 323 321 331 332 322 319 328 333 346 349 345 342 343 345 344 347 348 349 350 357 357 356 355 355 354 354 354 355 354 355 353 354 356 353 349 346 346 347 348 348
303 295 293 294 297 309 318 316 324 329 324 328 330 329 332 333 335 343 342 342 342 343 341 342 344 344 346 349 352 357 355 356 355 354 355 351 345 346 349 353 355 355 353 350 348 348 348 350 349
300 293 297 300 301 310 316 320 323 322 322 324 326 333 335 333 331 336 335 337 338 339 340 341 343 342 343 349 347 345 346 345 344 343 337 340 338 340 346 350 355 354 353 351 349 347 342 334 327
298 296 303 305 307 314 316 319 321 317 316 323 323 328 329 329 325 330 333 337 336 338 339 342 341 341 341 343 342 338 339 340 339 334 331 332 334 333 335 331 332 331 338 330 329 326 325 322 320
296 302 302 304 307 312 317 321 318 317 319 328 329 330 329 328 324 324 324 335 335 335 337 339 339 339 339 339 338 335 337 337 334 331 330 332 333 331 330 329 329 327 325 321 321 319 319 317 318
298 302 303 304 302 307 320 319 318 318 324 328 329 329 327 329 327 325 325 329 333 333 335 337 335 337 335 336 333 337 336 334 331 331 333 333 330 327 326 327 325 320 319 318 316 316 316 315 315
303 300 303 304 302 304 315 316 318 319 324 325 326 325 326 328 329 328 322 322 322 328 332 333 335 336 337 333 333 333 331 331 333 332 330 330 327 324 323 323 319 317 317 316 315 314 314 313 313
303 300 302 301 302 301 315 312 313 320 322 322 324 325 325 327 329 329 325 328 328 325 329 331 335 336 337 332 331 331 331 335 331 329 327 326 323 322 320 319 316 316 316 315 314 314 312 310 311
301 297 294 301 302 305 302 295 310 320 320 320 323 324 325 328 330 335 334 333 333 334 336 334 339 336 335 334 335 334 334 332 328 325 324 323 324 323 321 319 317 319 315 314 313 310 308 308 307
296 292 295 299 301 302 300 297 306 320 320 319 320 323 326 329 333 334 336 333 332 334 340 337 337 336 336 336 336 333 331 329 326 323 322 324 324 324 321 318 315 315 313 312 311 308 306 305 306
292 292 294 296 303 300 298 299 306 319 319 318 318 319 326 329 330 334 335 333 332 333 342 341 338 338 339 336 333 329 327 326 325 324 324 325 322 322 316 314 314 313 310 310 308 306 306 305 306
298 297 296 300 304 300 297 301 302 312 316 317 325 325 325 327 330 333 334 334 335 340 342 340 341 341 341 336 331 330 326 325 324 325 325 325 321 318 314 312 313 311 309 309 307 306 305 305 306
300 297 297 301 304 300 299 299 302 306 313 322 325 324 324 323 325 330 331 328 333 336 337 336 338 336 336 335 333 331 329 327 324 325 323 319 319 315 313 312 311 310 309 307 306 306 305 305 306
299 296 297 298 300 300 299 297 300 318 321 323 327 327 325 323 323 324 323 324 330 334 334 333 332 332 333 332 331 330 330 329 325 320 316 317 316 313 312 312 310 309 307 306 305 306 306 309 305
295 302 302 301 297 291 298 289 296 309 316 320 320 322 322 323 323 323 320 322 327 331 330 328 328 327 329 331 329 329 324 319 317 316 315 313 313 313 314 311 311 308 307 305 305 309 306 307 304
300 304 302 301 295 292 294 290 294 310 310 316 317 317 320 322 327 327 324 325 328 327 326 325 322 321 321 320 317 315 313 311 310 310 306 307 308 312 313 310 308 308 306 305 305 306 305 305 304
306 303 299 297 293 288 293 291 291 295 310 316 319 318 320 327 327 327 326 325 324 325 322 319 318 315 315 314 312 311 310 309 307 306 304 305 305 306 307 308 306 306 306 305 305 305 305 305 309
300 294 287 287 287 287 294 293 294 300 316 321 320 322 324 322 322 322 321 320 320 318 317 317 315 311 311 311 310 310 308 307 305 304 302 302 301 301 302 302 302 302 304 305 304 304 305 306 305
297 295 288 283 285 288 296 292 298 312 316 324 322 320 319 318 319 319 320 318 317 317 316 315 313 311 309 309 309 307 306 305 304 303 302 302 301 301 302 302 303 304 304 304 303 304 306 306 301
297 293 297 291 291 289 291 301 311 312 314 316 315 316 315 316 317 318 319 318 317 316 315 314 311 309 309 309 307 306 305 304 303 303 302 301 301 305 304 303 303 303 304 304 304 303 301 299 298
299 301 292 290 284 283 290 294 300 307 309 312 312 313 314 315 316 317 317 317 317 316 314 312 310 309 309 309 307 305 303 303 303 302 301 301 301 302 302 302 302 301 301 300 298 297 297 296 295
296 294 295 293 292 286 285 290 303 310 311 311 313 313 314 314 316 316 315 315 314 313 311 310 309 307 306 305 303 303 302 303 302 301 302 302 301 301 302 302 302 300 298 297 295 294 295 294 294
300 298 295 290 289 292 291 291 307 313 313 314 313 314 315 316 316 315 314 312 311 311 309 307 307 306 305 304 304 303 303 303 302 302 301 303 301 301 302 302 302 300 299 296 295 294 294 294 293
Wind_Speed
5 4 2 5 5 5 2 6 3 1 5 4 2 9 8 4 4 4 2 11 16 14 9 12 15 15 15 15 14 14 13 12 12 11 10 10 9 9 9 8 7 7 7 7 7 7 8 8 8
2 4 5 2 6 3 6 4 8 5 3 10 7 5 7 3 5 9 6 11 12 14 7 9 14 15 15 15 14 13 13 12 11 11 9 9 8 7 7 7 6 5 5 5 5 5 4 4 5
1 2 4 4 4 4 5 8 7 15 14 3 3 4 4 3 10 8 10 14 12 9 7 10 15 15 15 15 14 13 12 11 11 10 8 8 6 6 6 5 4 4 4 4 3 3 3 4 4
2 5 4 4 3 4 2 10 3 5 11 12 2 6 5 4 9 9 16 15 12 8 7 12 14 14 14 14 14 13 12 11 10 10 8 7 6 6 5 4 4 3 2 1 1 1 2 4 5
3 4 4 4 4 3 4 10 12 10 7 8 18 2 4 3 15 20 16 13 13 9 7 9 13 13 13 13 13 12 11 9 9 9 8 7 6 6 5 4 4 3 3 4 4 4 4 6 7
4 3 5 1 0 1 4 6 1 8 6 17 12 18 2 11 20 15 15 13 12 14 7 7 12 11 12 12 11 10 9 9 8 7 7 7 6 6 6 6 6 7 7 7 6 5 6 8 9
5 4 4 5 6 4 5 2 11 10 10 3 4 8 2 8 14 15 14 13 10 9 9 7 6 9 11 10 10 10 9 8 8 7 8 8 7 7 7 9 8 8 9 8 6 6 8 10 10
5 5 3 4 1 6 2 4 9 9 4 8 5 6 8 5 11 14 12 11 11 9 7 6 6 6 6 6 10 10 9 9 9 9 8 7 7 7 9 9 9 9 10 8 8 8 10 10 10
3 4 4 6 2 6 8 7 7 5 4 6 6 8 8 11 15 14 12 8 7 7 7 7 8 7 7 6 8 10 13 11 10 8 8 7 4 6 8 8 9 10 10 9 9 10 9 8 8
5 4 7 7 4 10 11 13 13 5 8 4 14 10 8 8 16 16 15 13 12 12 12 11 12 10 8 7 6 6 6 4 4 4 4 4 5 5 6 7 8 11 10 10 7 11 11 8 3
3 6 9 14 10 15 17 8 8 12 2 18 20 19 7 3 13 18 17 18 18 16 12 13 11 11 11 7 4 2 3 3 4 5 4 4 1 2 2 3 2 4 8 4 6 5 3 6 5
3 10 7 12 6 7 15 10 5 6 11 20 12 18 14 5 14 12 16 17 14 14 16 13 11 11 9 5 5 3 3 4 4 4 4 3 3 5 4 3 5 5 4 4 4 3 5 7 7
6 8 8 11 7 8 18 16 10 10 10 19 13 10 13 10 6 4 9 14 14 13 13 14 11 12 7 8 5 5 4 3 2 3 3 4 5 5 3 4 4 4 3 4 6 6 6 6 6
7 5 10 9 12 7 13 6 7 6 8 13 11 12 12 11 5 5 5 5 9 10 12 9 11 10 9 6 7 5 4 3 4 4 4 7 5 5 5 5 4 5 4 4 4 4 5 4 4
5 6 9 6 5 3 14 3 11 12 11 12 13 17 19 11 9 6 9 12 9 5 3 10 8 10 12 7 7 5 5 6 5 4 6 7 6 6 6 4 4 4 4 6 5 5 4 4 5
6 3 4 8 3 8 9 12 15 18 13 14 14 14 15 10 12 9 11 14 15 13 10 3 3 10 11 10 7 5 5 6 5 5 5 6 6 6 5 4 4 4 4 4 4 3 3 4 4
6 4 6 11 2 4 5 11 5 20 18 16 13 5 10 10 11 6 6 14 13 13 9 9 8 7 8 7 8 8 8 7 5 5 4 5 5 5 4 4 4 4 4 4 3 2 1 3 4
5 3 6 7 12 5 10 13 9 22 20 16 7 8 16 14 15 12 15 12 7 11 7 4 6 5 12 10 7 8 7 6 4 4 4 4 2 4 5 4 4 4 3 3 2 2 2 2 3
5 5 9 14 16 8 9 13 11 18 12 7 9 7 16 16 13 7 5 7 14 13 10 3 12 7 4 5 5 4 4 3 2 2 4 3 4 4 5 4 3 2 3 1 3 2 3 3 2
7 8 17 11 6 4 5 10 4 7 8 18 16 10 14 9 6 6 3 11 14 12 8 8 8 7 4 4 3 3 4 3 3 1 2 2 4 3 4 4 2 2 2 4 4 3 3 3 2
10 6 9 8 5 2 3 7 5 8 17 14 9 9 10 17 12 6 7 8 11 12 10 8 9 7 6 6 4 5 6 3 1 1 1 2 3 0 4 3 1 1 1 2 3 3 2 3 3
8 8 9 5 6 4 5 5 7 6 9 9 12 14 12 11 6 5 7 9 8 11 10 8 8 7 5 3 4 1 2 2 1 1 1 2 4 4 3 2 1 2 2 3 3 3 3 2 4
12 8 5 2 3 2 2 5 9 13 4 8 6 5 9 11 10 10 9 8 10 11 9 7 7 8 5 7 7 5 6 4 2 2 6 7 7 4 3 2 1 3 3 4 4 4 4 2 2
9 2 8 6 4 2 5 7 7 6 11 7 8 10 11 13 12 11 11 12 11 11 8 6 7 6 7 7 7 7 7 5 5 5 4 4 3 4 4 3 2 3 5 5 4 4 4 5 4
4 7 4 6 6 8 4 3 10 3 19 20 18 15 11 12 15 15 14 12 11 9 7 6 7 6 6 7 6 6 7 8 6 3 2 3 2 2 3 3 4 3 4 6 5 4 5 4 3
8 11 8 7 4 8 4 3 8 10 15 23 19 17 14 11 10 12 12 10 10 9 7 7 7 7 6 7 8 7 6 4 3 3 2 2 0 2 3 5 6 7 7 6 5 3 3 4 4
5 4 10 7 1 2 4 1 5 7 14 17 16 15 13 13 12 13 12 9 9 8 8 7 7 7 6 6 5 4 4 5 4 4 3 1 1 3 4 5 5 6 6 6 6 5 6 5 4
6 6 4 4 4 5 6 3 6 7 14 16 16 15 13 11 11 10 10 9 6 7 6 7 6 6 6 6 5 4 4 4 4 3 2 1 2 3 4 5 5 5 6 6 6 4 4 5 4
5 1 5 6 6 8 4 7 8 17 21 24 21 19 17 15 14 13 9 6 8 8 7 7 7 7 7 7 5 6 3 4 3 3 2 1 1 3 4 5 5 5 4 4 5 5 5 6 6
8 8 8 7 6 3 4 9 3 15 16 18 16 16 16 16 16 15 14 11 7 8 7 7 7 7 6 6 5 4 3 2 1 3 2 3 1 3 4 4 3 3 2 0 0 3 5 5 6
Wind_Direction
167 179 72 32 52 60 346 265 323 138 305 319 197 100 110 40 158 208 307 144 136 141 160 157 147 140 137 133 133 131 128 127 122 115 111 108 101 95 92 85 78 71 65 59 52 44 37 27 18
193 132 40 62 84 31 289 283 269 33 236 282 80 65 49 83 70 114 96 142 152 140 151 148 143 137 137 139 137 137 134 130 125 122 118 109 102 99 92 84 73 64 66 64 60 54 33 17 3
261 86 90 105 109 172 220 218 25 345 311 296 8 79 82 93 115 146 132 143 134 131 140 153 145 142 144 143 140 137 135 134 132 126 126 124 122 115 108 104 91 84 83 73 52 27 4 346 331
135 21 21 102 204 268 227 94 111 3 324 313 106 67 62 194 140 144 142 145 135 137 137 148 146 148 146 143 141 141 140 137 139 142 143 142 140 136 135 136 116 106 102 97 219 245 267 276 282
39 64 53 37 292 148 240 124 141 71 355 335 346 161 97 71 117 134 144 147 143 138 146 151 147 146 145 147 143 144 140 141 152 153 154 156 158 158 164 163 162 176 197 216 219 229 254 276 285
12 96 56 257 70 172 257 275 45 84 15 310 353 337 155 130 133 150 152 157 146 145 146 150 146 146 147 150 142 143 148 153 162 161 165 173 177 182 191 196 203 209 217 221 225 236 259 281 291
136 86 216 238 191 181 236 123 121 124 155 345 316 307 240 136 160 150 151 135 128 139 136 137 140 151 148 145 147 155 157 164 171 177 186 193 194 202 210 218 220 227 233 237 248 261 276 282 293
118 100 315 281 312 252 223 84 139 142 56 74 272 239 257 185 121 133 130 126 130 143 136 139 132 137 151 149 161 164 168 175 186 193 202 208 215 227 233 234 237 240 249 247 254 267 274 290 314
114 66 276 255 230 174 180 148 172 173 154 168 196 270 163 158 110 118 125 112 128 162 157 155 156 162 162 167 177 178 184 188 195 201 212 216 224 241 243 243 242 246 252 256 265 277 294 319 339
111 121 240 212 282 164 187 158 154 178 206 91 52 42 157 159 132 145 159 166 178 173 174 178 168 173 172 177 183 187 191 192 194 209 221 220 227 244 252 261 263 256 269 293 329 20 22 17 359
210 188 246 266 241 146 174 167 175 154 35 143 173 164 214 174 170 172 177 173 180 182 167 185 176 174 174 182 167 186 183 190 205 208 209 238 263 286 3 351 332 10 9 28 27 3 7 6 356
235 237 227 276 223 134 158 155 168 203 192 185 192 171 150 189 199 195 178 184 180 178 172 180 176 170 182 143 164 186 208 195 194 202 189 136 87 52 43 28 28 45 29 17 357 353 359 14 9
190 271 277 268 254 222 144 183 190 209 193 200 205 236 173 170 215 281 222 189 178 177 178 175 172 171 167 159 154 183 217 212 196 113 98 109 87 72 61 44 56 38 14 18 10 16 17 10 359
248 276 268 288 277 159 146 173 146 236 191 197 203 213 207 163 147 340 220 202 171 170 179 152 174 172 155 163 158 189 171 148 108 115 119 87 87 84 62 54 37 22 15 20 36 23 17 5 350
259 336 327 276 273 92 113 80 236 176 182 200 217 213 200 171 85 46 122 79 79 71 55 157 152 152 165 157 154 162 147 119 115 97 70 77 80 79 75 66 43 17 20 34 33 21 18 3 346
344 43 333 281 306 279 130 250 234 182 174 212 222 210 186 74 98 74 118 109 98 100 108 347 198 157 144 148 133 127 117 111 97 89 91 84 69 66 69 60 36 354 28 32 40 12 355 347 344
356 262 307 314 333 269 150 260 148 175 187 206 218 248 120 121 115 134 256 128 134 148 130 157 156 187 133 109 87 94 104 103 107 99 89 82 89 75 62 69 40 45 33 36 16 344 353 330 329
253 336 298 273 286 218 240 239 146 185 191 201 159 171 152 156 149 184 205 158 94 59 36 98 92 55 77 83 83 86 86 76 70 90 87 77 76 88 92 74 68 46 41 13 347 322 319 277 294
243 256 277 287 283 271 230 217 228 196 201 171 151 159 163 158 170 180 341 82 88 64 57 31 102 109 94 107 108 80 104 92 29 32 109 122 134 103 100 89 90 35 51 308 341 310 324 306 297
263 269 278 279 255 7 1 268 265 124 183 154 146 139 150 142 164 139 122 93 88 75 62 50 67 69 47 72 97 138 125 97 122 71 89 113 92 121 115 108 108 49 30 351 334 330 307 273 307
258 220 257 243 326 334 55 337 310 44 107 119 121 138 168 157 161 139 116 88 78 78 65 65 67 60 51 66 101 92 89 89 60 73 12 233 155 36 92 114 136 103 79 297 286 288 302 286 287
267 227 254 335 43 284 82 271 310 91 83 118 148 168 161 152 140 127 103 88 97 86 75 70 71 77 62 112 92 99 147 129 108 99 310 348 2 359 64 110 143 204 234 274 275 293 275 292 295
249 265 252 318 98 36 52 96 267 130 125 159 164 173 157 147 143 135 135 121 100 98 91 72 75 74 61 82 80 92 88 80 111 80 50 23 7 36 83 59 352 235 257 261 270 290 291 273 260
260 213 32 37 55 351 249 139 277 188 174 171 169 169 162 144 128 115 112 104 102 95 99 100 94 80 77 84 88 102 119 120 77 44 40 27 23 28 23 33 355 273 266 276 278 281 277 273 250
174 63 348 343 352 243 8 17 235 225 169 170 164 160 163 148 137 138 135 131 126 122 124 121 116 112 103 97 91 91 76 83 98 93 81 61 19 341 313 316 313 292 280 280 283 273 282 298 335
202 153 156 210 222 270 334 264 280 303 168 151 150 153 150 145 145 142 136 130 130 133 141 131 135 136 122 92 78 80 100 110 126 130 126 113 68 295 307 327 327 316 305 308 307 297 338 1 354
225 151 188 146 41 6 232 141 32 62 102 129 139 151 160 157 154 141 131 140 139 138 147 145 127 95 98 112 112 113 131 132 124 114 115 91 350 321 344 340 338 348 4 16 30 44 23 9 337
189 176 93 9 205 260 275 215 202 170 148 152 161 164 162 155 140 136 131 141 137 140 131 127 136 153 159 153 151 143 156 138 136 132 127 108 324 340 337 337 358 41 52 47 47 15 337 337 314
315 300 63 125 139 188 262 263 215 181 175 171 173 169 157 148 141 134 130 139 146 140 141 154 157 152 152 147 150 139 163 164 162 152 172 149 240 316 338 334 33 93 70 45 35 360 335 335 326
183 232 180 146 229 204 185 267 235 176 179 175 155 139 139 143 138 139 147 140 141 154 153 158 157 145 152 152 142 157 172 163 182 183 194 180 278 304 321 353 115 130 118 133 50 327 320 322 311